Time,TemperatureF,DewpointF,PressureIn,WindDirection,WindDirectionDegrees,WindSpeedMPH,WindSpeedGustMPH,Humidity,HourlyPrecipIn,Conditions,Clouds,dailyrainin,SoftwareType,DateUTC
2013-03-06 00:00:00,28.8,26.8,29.77,North,0,0.0,0.0,92,0.00,,,0.00,WUHU216HW,2013-03-06 05:00:00,
2013-03-06 00:05:00,28.8,26.8,29.77,North,0,0.0,0.0,92,0.00,,,0.00,WUHU216HW,2013-03-06 05:05:00,
2013-03-06 00:10:00,28.8,26.8,29.77,North,0,0.0,0.0,92,0.00,,,0.00,WUHU216HW,2013-03-06 05:10:00,
2013-03-06 00:30:00,29.0,27.0,29.77,North,0,0.0,0.0,92,0.00,,,0.00,WUHU216HW,2013-03-06 05:30:00,
2013-03-06 00:35:00,29.0,27.0,29.77,North,0,0.0,0.0,92,0.00,,,0.00,WUHU216HW,2013-03-06 05:35:00,
2013-03-06 00:40:00,29.0,27.0,29.77,North,0,0.0,0.0,92,0.00,,,0.00,WUHU216HW,2013-03-06 05:40:00,
2013-03-06 01:00:00,29.2,27.2,29.78,North,0,0.0,0.0,92,0.00,,,0.00,WUHU216HW,2013-03-06 06:00:00,
2013-03-06 01:05:00,29.3,27.4,29.78,North,0,0.0,0.0,92,0.00,,,0.00,WUHU216HW,2013-03-06 06:05:00,
2013-03-06 01:10:00,29.3,27.4,29.78,North,0,0.0,0.0,92,0.00,,,0.00,WUHU216HW,2013-03-06 06:10:00,
2013-03-06 01:30:00,29.7,27.7,29.80,North,0,0.0,0.0,92,0.00,,,0.00,WUHU216HW,2013-03-06 06:30:00,
2013-03-06 01:35:00,29.7,27.7,29.80,North,0,0.0,0.0,92,0.00,,,0.00,WUHU216HW,2013-03-06 06:35:00,
2013-03-06 01:40:00,29.7,27.7,29.80,North,0,0.0,0.0,92,0.00,,,0.00,WUHU216HW,2013-03-06 06:40:00,
2013-03-06 02:00:00,29.9,27.9,29.82,North,0,0.0,0.0,92,0.00,,,0.00,WUHU216HW,2013-03-06 07:00:00,
2013-03-06 02:05:00,29.9,27.9,29.82,North,0,0.0,0.0,92,0.00,,,0.00,WUHU216HW,2013-03-06 07:05:00,
2013-03-06 02:10:00,29.9,27.9,29.82,North,0,0.0,0.0,92,0.00,,,0.00,WUHU216HW,2013-03-06 07:10:00,
2013-03-06 02:30:00,29.9,27.4,29.83,North,0,0.0,0.0,90,0.00,,,0.00,WUHU216HW,2013-03-06 07:30:00,
2013-03-06 02:35:00,29.9,27.4,29.83,North,0,0.0,0.0,90,0.00,,,0.00,WUHU216HW,2013-03-06 07:35:00,
2013-03-06 02:40:00,29.9,27.4,29.83,North,0,0.0,0.0,90,0.00,,,0.00,WUHU216HW,2013-03-06 07:40:00,
2013-03-06 03:00:00,29.5,26.5,29.84,North,0,0.0,0.0,88,0.00,,,0.00,WUHU216HW,2013-03-06 08:00:00,
2013-03-06 03:05:00,29.5,26.5,29.84,North,0,0.0,0.0,88,0.00,,,0.00,WUHU216HW,2013-03-06 08:05:00,
2013-03-06 03:10:00,29.5,26.5,29.84,North,0,0.0,0.0,88,0.00,,,0.00,WUHU216HW,2013-03-06 08:10:00,
2013-03-06 03:30:00,29.0,25.9,29.86,North,0,0.0,0.0,88,0.00,,,0.00,WUHU216HW,2013-03-06 08:30:00,
2013-03-06 03:35:00,29.0,25.9,29.86,North,0,0.0,0.0,88,0.00,,,0.00,WUHU216HW,2013-03-06 08:35:00,
2013-03-06 03:40:00,29.0,25.9,29.86,North,0,0.0,0.0,88,0.00,,,0.00,WUHU216HW,2013-03-06 08:40:00,
2013-03-06 04:00:00,28.6,25.6,29.89,North,0,0.0,0.0,88,0.00,,,0.00,WUHU216HW,2013-03-06 09:00:00,
2013-03-06 04:05:00,28.6,25.6,29.89,North,0,0.0,0.0,88,0.00,,,0.00,WUHU216HW,2013-03-06 09:05:00,
2013-03-06 04:10:00,28.6,25.6,29.89,North,0,0.0,0.0,88,0.00,,,0.00,WUHU216HW,2013-03-06 09:10:00,
2013-03-06 04:30:00,28.8,25.8,29.90,North,0,0.0,0.0,88,0.00,,,0.00,WUHU216HW,2013-03-06 09:30:00,
2013-03-06 04:35:00,28.8,25.8,29.90,North,0,0.0,0.0,88,0.00,,,0.00,WUHU216HW,2013-03-06 09:35:00,
2013-03-06 04:40:00,28.8,25.8,29.90,North,0,0.0,0.0,88,0.00,,,0.00,WUHU216HW,2013-03-06 09:40:00,
2013-03-06 05:00:00,28.8,25.8,29.91,North,0,0.0,0.0,88,0.00,,,0.00,WUHU216HW,2013-03-06 10:00:00,
2013-03-06 05:05:00,28.8,25.8,29.91,North,0,0.0,0.0,88,0.00,,,0.00,WUHU216HW,2013-03-06 10:05:00,
2013-03-06 05:10:00,28.8,25.8,29.91,North,0,0.0,0.0,88,0.00,,,0.00,WUHU216HW,2013-03-06 10:10:00,
2013-03-06 05:30:00,28.6,25.6,29.94,North,0,0.0,0.0,88,0.00,,,0.00,WUHU216HW,2013-03-06 10:30:00,
2013-03-06 05:35:00,28.6,25.6,29.94,North,0,0.0,0.0,88,0.00,,,0.00,WUHU216HW,2013-03-06 10:35:00,
2013-03-06 05:40:00,28.6,25.6,29.94,North,0,0.0,0.0,88,0.00,,,0.00,WUHU216HW,2013-03-06 10:40:00,
2013-03-06 06:00:00,28.6,25.6,29.96,North,0,0.0,0.0,88,0.00,,,0.00,WUHU216HW,2013-03-06 11:00:00,
2013-03-06 06:05:00,28.6,25.6,29.96,North,0,0.0,0.0,88,0.00,,,0.00,WUHU216HW,2013-03-06 11:05:00,
2013-03-06 06:10:00,28.6,25.6,29.96,North,0,0.0,0.0,88,0.00,,,0.00,WUHU216HW,2013-03-06 11:10:00,
2013-03-06 06:30:00,28.3,24.8,29.99,North,0,1.3,1.3,87,0.00,,,0.00,WUHU216HW,2013-03-06 11:30:00,
2013-03-06 06:35:00,28.3,25.2,29.99,North,0,0.4,1.3,88,0.00,,,0.00,WUHU216HW,2013-03-06 11:35:00,
2013-03-06 06:40:00,28.3,25.2,29.99,North,0,0.4,1.3,88,0.00,,,0.00,WUHU216HW,2013-03-06 11:40:00,
2013-03-06 07:00:00,28.1,24.7,30.01,North,0,0.9,0.9,87,0.00,,,0.00,WUHU216HW,2013-03-06 12:00:00,
2013-03-06 07:05:00,28.1,24.7,30.01,North,0,0.0,0.9,87,0.00,,,0.00,WUHU216HW,2013-03-06 12:05:00,
2013-03-06 07:10:00,28.1,24.7,30.01,North,0,0.0,0.9,87,0.00,,,0.00,WUHU216HW,2013-03-06 12:10:00,
2013-03-06 07:30:00,28.3,24.8,30.03,North,0,0.9,0.9,87,0.00,,,0.00,WUHU216HW,2013-03-06 12:30:00,
2013-03-06 07:35:00,28.3,24.8,30.03,North,0,0.2,0.9,87,0.00,,,0.00,WUHU216HW,2013-03-06 12:35:00,
2013-03-06 07:40:00,28.3,24.8,30.03,North,0,0.2,0.2,87,0.00,,,0.00,WUHU216HW,2013-03-06 12:40:00,
2013-03-06 08:00:00,28.4,25.0,30.06,North,0,1.6,1.6,87,0.00,,,0.00,WUHU216HW,2013-03-06 13:00:00,
2013-03-06 08:05:00,28.4,25.0,30.06,North,0,0.2,1.6,87,0.00,,,0.00,WUHU216HW,2013-03-06 13:05:00,
2013-03-06 08:10:00,28.4,25.0,30.06,North,0,0.2,1.6,87,0.00,,,0.00,WUHU216HW,2013-03-06 13:10:00,
2013-03-06 08:30:00,28.8,25.4,30.08,North,0,1.1,1.1,87,0.00,,,0.00,WUHU216HW,2013-03-06 13:30:00,
2013-03-06 08:35:00,28.8,25.4,30.08,North,0,0.4,1.8,87,0.00,,,0.00,WUHU216HW,2013-03-06 13:35:00,
2013-03-06 08:40:00,28.8,25.4,30.08,North,0,0.4,1.8,87,0.00,,,0.00,WUHU216HW,2013-03-06 13:40:00,
2013-03-06 09:00:00,29.2,25.7,30.10,North,0,0.7,0.7,87,0.00,,,0.00,WUHU216HW,2013-03-06 14:00:00,
2013-03-06 09:05:00,29.2,25.7,30.10,North,0,1.1,1.1,87,0.00,,,0.00,WUHU216HW,2013-03-06 14:05:00,
2013-03-06 09:10:00,29.2,25.7,30.10,North,0,1.1,1.1,87,0.00,,,0.00,WUHU216HW,2013-03-06 14:10:00,
2013-03-06 09:30:00,29.9,26.2,30.11,North,0,0.7,0.7,86,0.00,,,0.00,WUHU216HW,2013-03-06 14:30:00,
2013-03-06 09:35:00,29.9,26.2,30.11,North,0,0.7,0.7,86,0.00,,,0.00,WUHU216HW,2013-03-06 14:35:00,
2013-03-06 09:40:00,29.9,26.2,30.11,North,0,0.7,0.7,86,0.00,,,0.00,WUHU216HW,2013-03-06 14:40:00,
2013-03-06 10:00:00,30.6,26.9,30.12,North,0,0.9,0.9,86,0.00,,,0.00,WUHU216HW,2013-03-06 15:00:00,
2013-03-06 10:05:00,30.6,27.2,30.12,North,0,0.4,0.9,87,0.00,,,0.00,WUHU216HW,2013-03-06 15:05:00,
2013-03-06 10:10:00,30.6,27.2,30.12,North,0,0.4,0.4,87,0.00,,,0.00,WUHU216HW,2013-03-06 15:10:00,
2013-03-06 10:30:00,31.1,27.5,30.13,North,0,0.9,0.9,86,0.00,,,0.00,WUHU216HW,2013-03-06 15:30:00,
2013-03-06 10:35:00,31.3,27.6,30.13,North,0,0.9,0.9,86,0.00,,,0.00,WUHU216HW,2013-03-06 15:35:00,
2013-03-06 10:40:00,31.3,27.6,30.13,North,0,0.9,0.9,86,0.00,,,0.00,WUHU216HW,2013-03-06 15:40:00,
2013-03-06 11:00:00,31.7,28.0,30.14,North,0,0.9,0.9,86,0.00,,,0.00,WUHU216HW,2013-03-06 16:00:00,
2013-03-06 11:05:00,31.7,28.0,30.14,North,0,0.4,0.9,86,0.00,,,0.00,WUHU216HW,2013-03-06 16:05:00,
2013-03-06 11:10:00,31.7,28.0,30.14,North,0,0.4,0.9,86,0.00,,,0.00,WUHU216HW,2013-03-06 16:10:00,
2013-03-06 11:30:00,32.4,28.1,30.15,North,0,0.9,0.9,84,0.00,,,0.00,WUHU216HW,2013-03-06 16:30:00,
2013-03-06 11:35:00,32.4,28.1,30.15,North,0,1.8,1.8,84,0.00,,,0.00,WUHU216HW,2013-03-06 16:35:00,
2013-03-06 11:40:00,32.4,28.1,30.15,North,0,1.8,1.8,84,0.00,,,0.00,WUHU216HW,2013-03-06 16:40:00,
2013-03-06 12:00:00,32.4,27.8,30.16,North,0,1.8,1.8,83,0.00,,,0.00,WUHU216HW,2013-03-06 17:00:00,
2013-03-06 12:05:00,32.4,27.8,30.16,North,0,0.2,1.8,83,0.00,,,0.00,WUHU216HW,2013-03-06 17:05:00,
2013-03-06 12:10:00,32.4,27.8,30.16,North,0,0.2,1.8,83,0.00,,,0.00,WUHU216HW,2013-03-06 17:10:00,
2013-03-06 12:30:00,32.9,28.4,30.16,North,0,0.9,0.9,83,0.00,,,0.00,WUHU216HW,2013-03-06 17:30:00,
2013-03-06 12:35:00,32.9,28.4,30.16,North,0,0.4,0.9,83,0.00,,,0.00,WUHU216HW,2013-03-06 17:35:00,
2013-03-06 12:40:00,32.9,28.4,30.16,North,0,0.4,0.9,83,0.00,,,0.00,WUHU216HW,2013-03-06 17:40:00,
2013-03-06 13:00:00,33.5,28.8,30.17,North,0,2.0,2.0,83,0.00,,,0.00,WUHU216HW,2013-03-06 18:00:00,
2013-03-06 13:05:00,33.5,28.8,30.17,North,0,1.1,2.0,83,0.00,,,0.00,WUHU216HW,2013-03-06 18:05:00,
2013-03-06 13:10:00,33.5,28.8,30.17,North,0,1.1,1.1,83,0.00,,,0.00,WUHU216HW,2013-03-06 18:10:00,
2013-03-06 13:30:00,34.0,29.0,30.17,NNW,338,1.6,1.6,82,0.01,,,0.00,WUHU216HW,2013-03-06 18:30:00,
2013-03-06 13:35:00,34.0,29.0,30.17,North,0,1.1,1.6,82,0.01,,,0.01,WUHU216HW,2013-03-06 18:35:00,
2013-03-06 13:40:00,34.0,29.0,30.17,North,0,1.1,1.6,82,0.01,,,0.01,WUHU216HW,2013-03-06 18:40:00,
2013-03-06 14:00:00,34.4,29.3,30.16,North,0,2.7,2.7,82,0.02,,,0.01,WUHU216HW,2013-03-06 19:00:00,
2013-03-06 14:05:00,34.4,29.3,30.16,North,0,0.2,2.7,82,0.02,,,0.02,WUHU216HW,2013-03-06 19:05:00,
2013-03-06 14:10:00,34.4,29.3,30.16,North,0,0.2,0.7,82,0.02,,,0.02,WUHU216HW,2013-03-06 19:10:00,
2013-03-06 14:30:00,34.7,29.7,30.16,NW,315,1.6,1.6,82,0.01,,,0.02,WUHU216HW,2013-03-06 19:30:00,
2013-03-06 14:35:00,34.7,29.7,30.16,NNW,338,3.4,3.4,82,0.01,,,0.02,WUHU216HW,2013-03-06 19:35:00,
2013-03-06 14:40:00,34.7,29.7,30.16,NNW,338,3.4,3.4,82,0.01,,,0.02,WUHU216HW,2013-03-06 19:40:00,
2013-03-06 15:00:00,33.5,29.3,30.18,NNW,338,5.1,5.1,85,0.01,,,0.02,WUHU216HW,2013-03-06 20:00:00,
2013-03-06 15:05:00,33.5,29.3,30.18,NW,315,6.7,6.7,85,0.01,,,0.03,WUHU216HW,2013-03-06 20:05:00,
2013-03-06 15:10:00,33.5,29.3,30.18,NW,315,6.7,6.7,85,0.01,,,0.03,WUHU216HW,2013-03-06 20:10:00,
2013-03-06 15:30:00,33.1,29.3,30.18,WNW,293,5.6,5.6,86,0.01,,,0.03,WUHU216HW,2013-03-06 20:30:00,
2013-03-06 15:35:00,33.1,29.3,30.18,NNW,338,4.7,5.6,86,0.01,,,0.03,WUHU216HW,2013-03-06 20:35:00,
2013-03-06 15:40:00,33.1,29.3,30.18,NNW,338,4.7,5.6,86,0.01,,,0.03,WUHU216HW,2013-03-06 20:40:00,
2013-03-06 16:00:00,32.9,29.2,30.19,NNW,338,1.8,1.8,86,0.01,,,0.03,WUHU216HW,2013-03-06 21:00:00,
2013-03-06 16:05:00,32.9,29.2,30.19,NNW,338,1.8,1.8,86,0.01,,,0.04,WUHU216HW,2013-03-06 21:05:00,
2013-03-06 16:10:00,32.9,29.2,30.19,NNW,338,1.8,1.8,86,0.01,,,0.04,WUHU216HW,2013-03-06 21:10:00,
2013-03-06 16:30:00,32.6,28.9,30.20,NW,315,1.1,1.1,86,0.00,,,0.04,WUHU216HW,2013-03-06 21:30:00,
2013-03-06 16:35:00,32.6,28.9,30.20,NNW,338,3.6,3.6,86,0.00,,,0.04,WUHU216HW,2013-03-06 21:35:00,
2013-03-06 16:40:00,32.6,28.9,30.20,NNW,338,3.6,3.6,86,0.00,,,0.04,WUHU216HW,2013-03-06 21:40:00,
2013-03-06 17:00:00,32.2,28.8,30.21,WNW,293,5.1,5.1,87,0.00,,,0.04,WUHU216HW,2013-03-06 22:00:00,
2013-03-06 17:05:00,32.2,28.8,30.21,NNW,338,0.4,5.1,87,0.00,,,0.04,WUHU216HW,2013-03-06 22:05:00,
2013-03-06 17:10:00,32.2,28.8,30.21,NNW,338,0.4,5.1,87,0.00,,,0.04,WUHU216HW,2013-03-06 22:10:00,
2013-03-06 17:30:00,32.2,28.8,30.22,NW,315,4.3,4.3,87,0.00,,,0.04,WUHU216HW,2013-03-06 22:30:00,
2013-03-06 17:35:00,32.2,28.8,30.22,West,270,7.2,7.2,87,0.00,,,0.04,WUHU216HW,2013-03-06 22:35:00,
2013-03-06 17:40:00,32.2,28.8,30.22,West,270,7.2,7.2,87,0.00,,,0.04,WUHU216HW,2013-03-06 22:40:00,
2013-03-06 18:00:00,32.0,29.0,30.23,NW,315,2.5,2.5,88,0.00,,,0.04,WUHU216HW,2013-03-06 23:00:00,
2013-03-06 18:05:00,32.0,29.0,30.23,NW,315,2.5,2.5,88,0.00,,,0.04,WUHU216HW,2013-03-06 23:05:00,
2013-03-06 18:10:00,32.0,29.0,30.23,NW,315,2.5,2.5,88,0.00,,,0.04,WUHU216HW,2013-03-06 23:10:00,
2013-03-06 18:30:00,31.9,29.1,30.24,NNW,338,7.8,7.8,89,0.00,,,0.04,WUHU216HW,2013-03-06 23:30:00,
2013-03-06 18:35:00,31.9,29.1,30.24,WNW,293,5.4,7.8,89,0.00,,,0.04,WUHU216HW,2013-03-06 23:35:00,
2013-03-06 18:40:00,31.9,29.1,30.24,WNW,293,5.4,5.4,89,0.00,,,0.04,WUHU216HW,2013-03-06 23:40:00,
2013-03-06 19:00:00,31.5,29.0,30.25,WNW,293,9.2,9.2,90,0.00,,,0.04,WUHU216HW,2013-03-07 00:00:00,
2013-03-06 19:05:00,31.5,29.0,30.25,WNW,293,8.3,9.2,90,0.00,,,0.04,WUHU216HW,2013-03-07 00:05:00,
2013-03-06 19:10:00,31.5,29.0,30.25,WNW,293,8.3,8.3,90,0.00,,,0.04,WUHU216HW,2013-03-07 00:10:00,
2013-03-06 19:30:00,31.5,28.7,30.26,WNW,293,6.7,6.7,89,0.00,,,0.04,WUHU216HW,2013-03-07 00:30:00,
2013-03-06 19:35:00,31.3,28.5,30.26,WNW,293,5.8,6.7,89,0.00,,,0.04,WUHU216HW,2013-03-07 00:35:00,
2013-03-06 19:40:00,31.3,28.5,30.26,WNW,293,5.8,5.8,89,0.00,,,0.04,WUHU216HW,2013-03-07 00:40:00,
2013-03-06 20:00:00,31.3,28.5,30.26,North,0,3.4,3.4,89,0.00,,,0.04,WUHU216HW,2013-03-07 01:00:00,
2013-03-06 20:05:00,31.3,28.5,30.26,NNW,338,2.5,3.4,89,0.00,,,0.04,WUHU216HW,2013-03-07 01:05:00,
2013-03-06 20:10:00,31.3,28.5,30.26,NNW,338,2.5,3.4,89,0.00,,,0.04,WUHU216HW,2013-03-07 01:10:00,
2013-03-06 20:30:00,31.3,28.5,30.26,West,270,4.0,4.0,89,0.00,,,0.04,WUHU216HW,2013-03-07 01:30:00,
2013-03-06 20:35:00,31.3,28.5,30.26,WNW,293,6.5,6.5,89,0.00,,,0.04,WUHU216HW,2013-03-07 01:35:00,
2013-03-06 20:40:00,31.3,28.5,30.26,WNW,293,6.5,6.5,89,0.00,,,0.04,WUHU216HW,2013-03-07 01:40:00,
2013-03-06 21:00:00,31.1,28.4,30.26,NW,315,6.3,6.3,89,0.00,,,0.04,WUHU216HW,2013-03-07 02:00:00,
2013-03-06 21:05:00,31.1,28.4,30.26,NNW,338,4.7,6.3,89,0.00,,,0.04,WUHU216HW,2013-03-07 02:05:00,
2013-03-06 21:10:00,31.1,28.4,30.26,NNW,338,4.7,6.3,89,0.00,,,0.04,WUHU216HW,2013-03-07 02:10:00,
2013-03-06 21:30:00,31.0,28.2,30.27,NNW,338,2.7,2.7,89,0.00,,,0.04,WUHU216HW,2013-03-07 02:30:00,
2013-03-06 21:35:00,31.0,28.2,30.27,NNW,338,3.1,3.1,89,0.00,,,0.04,WUHU216HW,2013-03-07 02:35:00,
2013-03-06 21:40:00,31.0,28.2,30.27,NNW,338,3.1,3.1,89,0.00,,,0.04,WUHU216HW,2013-03-07 02:40:00,
2013-03-06 22:00:00,30.8,28.0,30.27,NW,315,2.7,2.7,89,0.00,,,0.04,WUHU216HW,2013-03-07 03:00:00,
2013-03-06 22:05:00,30.8,28.0,30.27,NW,315,2.7,2.7,89,0.00,,,0.04,WUHU216HW,2013-03-07 03:05:00,
2013-03-06 22:10:00,30.8,28.0,30.27,NW,315,2.7,2.7,89,0.00,,,0.04,WUHU216HW,2013-03-07 03:10:00,
2013-03-06 22:30:00,30.6,28.1,30.26,North,0,2.7,2.7,90,0.00,,,0.04,WUHU216HW,2013-03-07 03:30:00,
2013-03-06 22:35:00,30.6,28.1,30.26,NNW,338,0.7,2.7,90,0.00,,,0.04,WUHU216HW,2013-03-07 03:35:00,
2013-03-06 22:40:00,30.6,28.1,30.26,NNW,338,0.7,0.7,90,0.00,,,0.04,WUHU216HW,2013-03-07 03:40:00,
2013-03-06 23:00:00,30.6,27.8,30.26,WSW,248,4.9,4.9,89,0.00,,,0.04,WUHU216HW,2013-03-07 04:00:00,
2013-03-06 23:05:00,30.6,27.8,30.26,West,270,2.7,4.9,89,0.00,,,0.04,WUHU216HW,2013-03-07 04:05:00,
2013-03-06 23:10:00,30.6,27.8,30.26,West,270,2.7,4.9,89,0.00,,,0.04,WUHU216HW,2013-03-07 04:10:00,
2013-03-06 23:30:00,30.4,27.6,30.26,NW,315,3.6,3.6,89,0.00,,,0.04,WUHU216HW,2013-03-07 04:30:00,
2013-03-06 23:35:00,30.4,27.6,30.26,NW,315,3.6,3.6,89,0.00,,,0.04,WUHU216HW,2013-03-07 04:35:00,
2013-03-06 23:40:00,30.4,27.6,30.26,NW,315,3.6,3.6,89,0.00,,,0.04,WUHU216HW,2013-03-07 04:40:00,